W2PJ Weather Reports


Display with metric or nautical units.
time (UTC)temp
F
wind
direction
speed
MPH
gust
MPH
rain 1hr
in
rain 24hr
in
rain mn
in
humidity
%
barometer
mb
20260906220549 69 21 0.0 0.0 0.00 0.00 0.00 61 1018.0
20260906220100 70 17 0.0 0.0 0.00 0.00 0.00 61 1018.0
20260906215622 70 24 0.0 0.0 0.00 0.00 0.00 60 1017.9
20260906215004 70 356 0.0 3.0 0.00 0.00 0.00 61 1017.9
20260906214531 70 7 0.0 3.0 0.00 0.00 0.00 60 1017.9
20260906214049 70 69 0.0 5.0 0.00 0.00 0.00 60 1017.9
20260906213610 70 342 0.0 5.0 0.00 0.00 0.00 59 1017.9
20260906213021 70 73 0.0 5.0 0.00 0.00 0.00 60 1017.9
20260906212539 71 14 1.0 5.0 0.00 0.00 0.00 57 1017.9
20260906212102 71 356 0.0 0.0 0.00 0.00 0.00 60 1018.0
20260906211535 71 67 0.0 0.0 0.00 0.00 0.00 62 1018.0
20260906211058 70 297 0.0 0.0 0.00 0.00 0.00 61 1018.0
20260906210618 70 5 0.0 5.0 0.00 0.00 0.00 62 1018.0
20260906210142 70 292 0.0 5.0 0.00 0.00 0.00 62 1018.0
20260906205513 70 50 0.0 0.0 0.00 0.00 0.00 60 1018.0
20260906204557 70 13 0.0 8.0 0.00 0.00 0.00 62 1017.9
20260906204110 70 22 0.0 8.0 0.00 0.00 0.00 60 1017.9
20260906203632 71 5 0.0 6.0 0.00 0.00 0.00 63 1017.8
20260906203152 70 27 0.0 6.0 0.00 0.00 0.00 63 1017.9
20260906202503 69 10 0.0 0.0 0.00 0.00 0.00 60 1017.9
20260906202024 70 3 0.0 5.0 0.00 0.00 0.00 61 1017.9
20260906201547 70 74 0.0 5.0 0.00 0.00 0.00 62 1017.9
20260906201059 69 69 0.0 3.0 0.00 0.00 0.00 61 1017.9
20260906200618 70 21 0.0 3.0 0.00 0.00 0.00 60 1017.8
20260906200006 69 29 0.0 1.0 0.00 0.00 0.00 60 1017.7
20260906195519 70 354 0.0 6.0 0.00 0.00 0.00 61 1017.7
20260906195038 70 15 0.0 6.0 0.00 0.00 0.00 60 1017.6
20260906194608 70 35 2.0 6.0 0.00 0.00 0.00 59 1017.7
20260906194123 70 52 1.0 6.0 0.00 0.00 0.00 59 1017.7
20260906193506 70 287 0.0 0.0 0.00 0.00 0.00 59 1017.8
20260906193048 70 50 0.0 0.0 0.00 0.00 0.00 58 1017.8
20260906192608 70 353 0.0 4.0 0.00 0.00 0.00 61 1017.8
20260906192126 70 338 0.0 9.0 0.00 0.00 0.00 60 1017.7
20260906191644 70 12 2.0 9.0 0.00 0.00 0.00 59 1017.7
20260906191009 70 306 0.0 4.0 0.00 0.00 0.00 59 1017.7
20260906190527 70 51 0.0 1.0 0.00 0.00 0.00 61 1017.7
20260906190050 70 36 0.0 1.0 0.00 0.00 0.00 60 1017.7
20260906185609 70 77 0.0 1.0 0.00 0.00 0.00 60 1017.8
20260906185127 70 33 0.0 5.0 0.00 0.00 0.00 61 1017.8
20260906184645 70 347 0.0 9.0 0.00 0.00 0.00 60 1017.7
20260906184009 70 320 1.0 9.0 0.00 0.00 0.00 59 1017.6
20260906183528 69 69 0.0 6.0 0.00 0.00 0.00 59 1017.8
20260906183103 70 32 0.0 1.0 0.00 0.00 0.00 60 1017.8
20260906182612 70 20 0.0 5.0 0.00 0.00 0.00 59 1017.8
20260906182127 69 320 0.0 9.0 0.00 0.00 0.00 60 1017.8
20260906181544 69 41 0.0 0.0 0.00 0.00 0.00 59 1017.8
20260906181053 69 46 0.0 6.0 0.00 0.00 0.00 60 1018.0
20260906180610 69 25 0.0 10.0 0.00 0.00 0.00 61 1018.1
20260906180137 68 8 2.0 7.0 0.00 0.00 0.00 60 1018.0
20260906175506 68 49 0.0 7.0 0.00 0.00 0.00 63 1018.0
20260906175023 69 43 1.0 7.0 0.00 0.00 0.00 60 1018.1
20260906174102 67 73 0.0 4.0 0.00 0.00 0.00 64 1018.1
20260906173619 68 19 0.0 4.0 0.00 0.00 0.00 61 1018.1
20260906173145 68 51 0.0 0.0 0.00 0.00 0.00 62 1018.1
20260906172512 68 55 0.0 8.0 0.00 0.00 0.00 62 1018.3
20260906172031 68 60 1.0 10.0 0.00 0.00 0.00 63 1018.2
20260906171613 68 67 1.0 10.0 0.00 0.00 0.00 61 1018.2
20260906171115 68 29 0.0 6.0 0.00 0.00 0.00 61 1018.2
20260906170632 69 45 0.0 2.0 0.00 0.00 0.00 63 1018.2
20260906170058 68 356 0.0 8.0 0.00 0.00 0.00 64 1018.2
20260906165610 68 7 0.0 9.0 0.00 0.00 0.00 62 1018.2
20260906165125 68 69 0.0 6.0 0.00 0.00 0.00 66 1018.2
20260906164647 67 31 1.0 6.0 0.00 0.00 0.00 65 1018.2
20260906164002 67 3 0.0 0.0 0.00 0.00 0.00 66 1018.2
20260906163521 67 31 0.0 0.0 0.00 0.00 0.00 68 1018.2
20260906163044 66 48 0.0 0.0 0.00 0.00 0.00 68 1018.3
20260906162609 66 1 0.0 0.0 0.00 0.00 0.00 70 1018.4
20260906162121 66 352 0.0 4.0 0.00 0.00 0.00 70 1018.4
20260906161645 67 347 0.0 8.0 0.00 0.00 0.00 70 1018.4
20260906161003 68 15 0.0 0.0 0.00 0.00 0.00 69 1018.4
20260906160521 67 306 0.0 0.0 0.00 0.00 0.00 73 1018.4
20260906160048 67 2 0.0 0.0 0.00 0.00 0.00 71 1018.5
20260906155610 67 311 0.0 0.0 0.00 0.00 0.00 71 1018.5
20260906155125 67 20 0.0 0.0 0.00 0.00 0.00 74 1018.6
20260906154543 66 77 0.0 0.0 0.00 0.00 0.00 75 1018.7
20260906154056 65 42 0.0 4.0 0.00 0.00 0.00 74 1018.6
20260906153615 65 89 0.0 4.0 0.00 0.00 0.00 76 1018.6
20260906153011 64 24 0.0 3.0 0.00 0.00 0.00 75 1018.7
20260906152529 64 3 0.0 1.0 0.00 0.00 0.00 77 1018.7
20260906152049 65 20 0.0 1.0 0.00 0.00 0.00 74 1018.7
20260906151600 65 356 0.0 0.0 0.00 0.00 0.00 76 1018.6
20260906151115 64 55 0.0 0.0 0.00 0.00 0.00 77 1018.7
20260906150634 64 86 0.0 6.0 0.00 0.00 0.00 76 1018.7
20260906150040 64 31 0.0 6.0 0.00 0.00 0.00 76 1018.6
20260906145601 64 39 0.0 4.0 0.00 0.00 0.00 78 1018.6
20260906145115 64 318 0.0 0.0 0.00 0.00 0.00 80 1018.5
20260906144637 64 344 0.0 0.0 0.00 0.00 0.00 80 1018.5
20260906144003 63 79 0.0 0.0 0.00 0.00 0.00 80 1018.5
20260906143517 63 71 0.0 5.0 0.00 0.00 0.00 80 1018.4
20260906143037 63 39 0.0 5.0 0.00 0.00 0.00 81 1018.4
20260906142553 63 24 0.0 1.0 0.00 0.00 0.00 81 1018.4
20260906142118 63 76 0.0 0.0 0.00 0.00 0.00 82 1018.4
20260906141550 63 14 0.0 0.0 0.00 0.00 0.00 83 1018.4
20260906141057 63 42 0.0 0.0 0.00 0.00 0.00 86 1018.4
20260906140617 62 288 0.0 0.0 0.00 0.00 0.00 89 1018.3
20260906140140 62 307 0.0 0.0 0.00 0.00 0.00 90 1018.4
20260906135502 61 310 0.0 0.0 0.00 0.00 0.00 92 1018.3
20260906135021 61 255 0.0 0.0 0.00 0.00 0.00 92 1018.3
20260906134600 60 310 0.0 0.0 0.00 0.00 0.00 93 1018.3
20260906133633 60 310 0.0 1.0 0.00 0.00 0.00 92 1018.4
20260906133042 59 313 0.0 0.0 0.00 0.00 0.00 90 1018.3
20260906132558 58 27 0.0 0.0 0.00 0.00 0.00 90 1018.3
20260906132120 58 42 0.0 0.0 0.00 0.00 0.00 90 1018.3
20260906131645 58 323 0.0 0.0 0.00 0.00 0.00 90 1018.3
20260906131010 58 93 0.0 0.0 0.00 0.00 0.00 90 1018.3
20260906130530 57 33 0.0 0.0 0.00 0.00 0.00 90 1018.3
20260906130059 57 306 0.0 0.0 0.00 0.00 0.00 90 1018.3
20260906125615 57 323 0.0 0.0 0.00 0.00 0.00 90 1018.3
20260906125135 57 330 0.0 0.0 0.00 0.00 0.00 90 1018.2
20260906124537 56 319 0.0 0.0 0.00 0.00 0.00 90 1018.1
20260906124058 57 294 0.0 0.0 0.00 0.00 0.00 90 1018.1
20260906123615 57 292 0.0 0.0 0.00 0.00 0.00 90 1018.0
20260906123142 57 283 0.0 0.0 0.00 0.00 0.00 90 1017.9
20260906122505 57 286 0.0 0.0 0.00 0.00 0.00 90 1017.9
20260906122025 57 249 0.0 0.0 0.00 0.00 0.00 90 1017.9
20260906121549 56 287 0.0 0.0 0.00 0.00 0.00 90 1018.0
20260906121110 56 309 0.0 0.0 0.00 0.00 0.00 90 1018.0
20260906120619 56 353 0.0 0.0 0.00 0.00 0.00 90 1018.0
20260906120037 56 299 0.0 0.0 0.00 0.00 0.00 90 1017.9
20260906115557 56 315 0.0 0.0 0.00 0.00 0.00 90 1017.7
20260906115117 56 300 0.0 0.0 0.00 0.00 0.00 90 1017.8
20260906114543 56 300 0.0 0.0 0.00 0.00 0.00 90 1017.7
20260906114053 56 357 0.0 0.0 0.00 0.00 0.00 90 1017.7
20260906113611 56 269 0.0 0.0 0.00 0.00 0.00 90 1017.7
20260906113004 56 339 0.0 0.0 0.00 0.00 0.00 90 1017.7
20260906112523 56 358 0.0 0.0 0.00 0.00 0.00 90 1017.6
20260906112040 56 6 0.0 0.0 0.00 0.00 0.00 90 1017.6
20260906111608 56 294 0.0 0.0 0.00 0.00 0.00 90 1017.5
20260906111124 56 287 0.0 0.0 0.00 0.00 0.00 90 1017.4
20260906110502 56 287 0.0 0.0 0.00 0.00 0.00 90 1017.3
20260906110047 56 287 0.0 0.0 0.00 0.00 0.00 90 1017.1
20260906105605 56 359 0.0 0.0 0.00 0.00 0.00 90 1017.1
20260906105121 56 359 0.0 0.0 0.00 0.00 0.00 90 1017.0
20260906104644 56 359 0.0 0.0 0.00 0.00 0.00 90 1016.9
20260906104012 56 358 0.0 0.0 0.00 0.00 0.00 90 1016.9
20260906103532 56 311 0.0 0.0 0.00 0.00 0.00 90 1016.7
20260906103053 56 311 0.0 0.0 0.00 0.00 0.00 90 1016.6
20260906102615 56 311 0.0 0.0 0.00 0.00 0.00 90 1016.6
20260906102133 56 311 0.0 0.0 0.00 0.00 0.00 90 1016.6
20260906101540 56 311 0.0 0.0 0.00 0.00 0.00 90 1016.6
20260906101101 56 282 0.0 0.0 0.00 0.00 0.00 90 1016.6
20260906100624 57 282 0.0 0.0 0.00 0.00 0.00 91 1016.6
20260906100005 58 332 0.0 0.0 0.00 0.00 0.00 92 1016.6
20260906095522 57 342 0.0 0.0 0.00 0.00 0.00 92 1016.4
20260906095037 57 349 0.0 0.0 0.00 0.00 0.00 92 1016.3
20260906094609 57 349 0.0 0.0 0.00 0.00 0.00 92 1016.4
20260906094119 57 349 0.0 0.0 0.00 0.00 0.00 92 1016.3
20260906093504 57 49 0.0 0.0 0.00 0.00 0.00 92 1016.2
20260906093053 57 56 0.0 0.0 0.00 0.00 0.00 92 1016.0
20260906092613 57 56 0.0 0.0 0.00 0.00 0.00 92 1016.0
20260906092132 57 56 0.0 0.0 0.00 0.00 0.00 92 1015.9
20260906091513 57 56 0.0 0.0 0.00 0.00 0.00 92 1015.8
20260906091029 58 56 0.0 0.0 0.00 0.00 0.00 92 1015.7
20260906090551 58 56 0.0 0.0 0.00 0.00 0.00 92 1015.7
20260906090113 58 56 0.0 0.0 0.00 0.00 0.00 92 1015.7
20260906085631 58 56 0.0 0.0 0.00 0.00 0.00 92 1015.7
20260906085017 58 56 0.0 0.0 0.00 0.00 0.00 92 1015.7
20260906084557 57 57 0.0 0.0 0.00 0.00 0.00 92 1015.7
20260906084113 58 56 0.0 0.0 0.00 0.00 0.00 91 1015.7
20260906083633 57 56 0.0 0.0 0.00 0.00 0.00 91 1015.7
20260906083032 58 56 0.0 0.0 0.00 0.00 0.00 91 1015.6
20260906082553 58 56 0.0 0.0 0.00 0.00 0.00 91 1015.6
20260906082111 57 55 0.0 0.0 0.00 0.00 0.00 91 1015.6
20260906081536 57 56 0.0 0.0 0.00 0.00 0.00 91 1015.5
20260906081057 57 56 0.0 0.0 0.00 0.00 0.00 91 1015.4
20260906080620 57 56 0.0 0.0 0.00 0.00 0.00 91 1015.3
20260906080038 57 56 0.0 0.0 0.00 0.00 0.00 91 1015.4
20260906075557 58 56 0.0 0.0 0.00 0.00 0.00 91 1015.4
20260906075117 58 56 0.0 0.0 0.00 0.00 0.00 91 1015.5
20260906074542 58 56 0.0 0.0 0.00 0.00 0.00 91 1015.4
20260906074059 58 56 0.0 0.0 0.00 0.00 0.00 91 1015.3
20260906073618 58 56 0.0 0.0 0.00 0.00 0.00 91 1015.2
20260906073146 58 56 0.0 0.0 0.00 0.00 0.00 91 1015.2
20260906072515 58 56 0.0 0.0 0.00 0.00 0.00 92 1015.2
20260906072035 58 55 0.0 0.0 0.00 0.00 0.00 91 1015.2
20260906071555 58 56 0.0 0.0 0.00 0.00 0.00 91 1015.2
20260906071113 59 56 0.0 0.0 0.00 0.00 0.00 91 1015.2
20260906070637 59 55 0.0 0.0 0.00 0.00 0.00 91 1015.2
20260906070041 59 55 0.0 0.0 0.00 0.00 0.00 91 1015.1
20260906065559 59 55 0.0 0.0 0.00 0.00 0.00 91 1015.2
20260906065120 59 54 0.0 0.0 0.00 0.00 0.00 91 1015.3
20260906064524 59 56 0.0 0.0 0.00 0.00 0.00 91 1015.2
20260906064045 59 35 0.0 0.0 0.00 0.00 0.00 91 1015.2
20260906063610 59 328 0.0 0.0 0.00 0.00 0.00 91 1015.2
20260906063136 59 328 0.0 0.0 0.00 0.00 0.00 91 1015.2
20260906062516 59 328 0.0 0.0 0.00 0.00 0.00 91 1015.2
20260906062029 59 328 0.0 0.0 0.00 0.00 0.00 91 1015.2
20260906061550 59 328 0.0 0.0 0.00 0.00 0.00 91 1015.2
20260906061106 59 328 0.0 0.0 0.00 0.00 0.00 91 1015.2
20260906060619 59 328 0.0 0.0 0.00 0.00 0.00 91 1015.3
20260906060001 59 328 0.0 0.0 0.00 0.00 0.00 91 1015.2
20260906055525 59 328 0.0 0.0 0.00 0.00 0.00 92 1015.3
20260906055045 59 328 0.0 0.0 0.00 0.00 0.00 92 1015.3
20260906054607 59 328 0.0 0.0 0.00 0.00 0.00 92 1015.3
20260906054117 60 328 0.0 0.0 0.00 0.00 0.00 91 1015.3
20260906053507 60 328 0.0 0.0 0.00 0.00 0.00 92 1015.3
20260906053043 60 328 0.0 0.0 0.00 0.00 0.00 92 1015.2
20260906052601 60 328 0.0 0.0 0.00 0.00 0.00 92 1015.1
20260906052121 60 328 0.0 0.0 0.00 0.00 0.00 92 1015.1
20260906051545 60 328 0.0 0.0 0.00 0.00 0.00 92 1015.2
20260906051106 60 328 0.0 0.0 0.00 0.00 0.00 91 1015.2
20260906050628 60 328 0.0 0.0 0.00 0.00 0.00 91 1015.2
20260906050150 60 328 0.0 0.0 0.00 0.00 0.00 91 1015.2
20260906045510 60 328 0.0 0.0 0.00 0.00 0.00 92 1015.2
20260906045025 60 328 0.0 0.0 0.00 0.00 0.00 92 1015.2
20260906044541 60 328 0.0 0.0 0.00 0.00 0.00 92 1015.2
20260906044102 60 328 0.0 0.0 0.00 0.00 0.00 92 1015.2
20260906043615 60 328 0.0 0.0 0.00 0.00 0.00 92 1015.3
20260906043037 60 328 0.0 0.0 0.00 0.00 0.00 92 1015.4
20260906042549 61 328 0.0 0.0 0.00 0.00 0.00 92 1015.5
20260906042107 61 328 0.0 0.0 0.00 0.00 0.00 92 1015.5
20260906041638 61 328 0.0 0.0 0.00 0.00 0.00 92 1015.5
20260906041013 61 328 0.0 0.0 0.00 0.00 0.00 92 1015.4
20260906040529 61 328 0.0 0.0 0.00 0.00 0.00 92 1015.4
20260906040053 61 328 0.0 0.0 0.00 0.00 0.00 92 1015.4
20260906035511 61 328 0.0 0.0 0.00 0.00 0.00 92 1015.4
20260906035025 61 328 0.0 0.0 0.00 0.00 0.00 92 1015.3
20260906034552 62 328 0.0 0.0 0.00 0.00 0.00 92 1015.3
20260906034054 62 328 0.0 0.0 0.00 0.00 0.00 92 1015.2
20260906033612 62 328 0.0 0.0 0.00 0.00 0.00 92 1015.2
20260906033136 62 328 0.0 0.0 0.00 0.00 0.00 92 1015.2
20260906032512 62 328 0.0 0.0 0.00 0.00 0.00 92 1015.1
20260906032028 62 328 0.0 0.0 0.00 0.00 0.00 92 1015.1
20260906031543 62 328 0.0 0.0 0.00 0.00 0.00 92 1015.0
20260906031058 62 328 0.0 0.0 0.00 0.00 0.00 92 1015.0
20260906030626 62 328 0.0 0.0 0.00 0.00 0.00 92 1014.9
20260906030148 62 328 0.0 0.0 0.00 0.00 0.00 91 1014.9
20260906025512 63 310 0.0 0.0 0.00 0.00 0.00 91 1015.0
20260906025022 63 309 0.0 0.0 0.00 0.00 0.00 91 1015.0
20260906024553 63 309 0.0 0.0 0.00 0.00 0.00 91 1014.9
20260906024110 63 306 0.0 0.0 0.00 0.00 0.00 91 1014.9
20260906023630 63 307 0.0 0.0 0.00 0.00 0.00 91 1014.9
20260906023029 63 306 0.0 0.0 0.00 0.00 0.00 91 1015.1
20260906022550 63 307 0.0 0.0 0.00 0.00 0.00 91 1015.0
20260906022106 63 306 0.0 0.0 0.00 0.00 0.00 91 1014.9
20260906021512 63 306 0.0 0.0 0.00 0.00 0.00 91 1014.8
20260906021031 63 307 0.0 0.0 0.00 0.00 0.00 91 1014.9
20260906020550 63 301 0.0 0.0 0.00 0.00 0.00 91 1014.9
20260906020120 63 302 0.0 0.0 0.00 0.00 0.00 91 1014.9
20260906015506 63 349 0.0 0.0 0.00 0.00 0.00 91 1014.9
20260906015024 63 339 0.0 0.0 0.00 0.00 0.00 91 1014.8
20260906014547 63 18 0.0 0.0 0.00 0.00 0.00 90 1014.8
20260906014054 63 20 0.0 0.0 0.00 0.00 0.00 90 1014.8
20260906013617 63 20 0.0 0.0 0.00 0.00 0.00 90 1014.8
20260906013034 63 21 0.0 0.0 0.00 0.00 0.00 90 1014.8
20260906012552 63 14 0.0 0.0 0.00 0.00 0.00 90 1014.8
20260906012111 63 5 0.0 0.0 0.00 0.00 0.00 90 1014.8
20260906011638 63 12 0.0 0.0 0.00 0.00 0.00 90 1014.7
20260906011011 63 13 0.0 0.0 0.00 0.00 0.00 89 1014.7
20260906010534 63 13 0.0 0.0 0.00 0.00 0.00 89 1014.7
20260906010128 63 3 0.0 0.0 0.00 0.00 0.00 89 1014.7
20260906005613 63 20 0.0 0.0 0.00 0.00 0.00 89 1014.7
20260906005126 64 1 0.0 0.0 0.00 0.00 0.00 89 1014.8
20260906004547 64 8 0.0 0.0 0.00 0.00 0.00 88 1014.7
20260906004058 64 318 0.0 0.0 0.00 0.00 0.00 88 1014.6
20260906003620 64 18 0.0 0.0 0.00 0.00 0.00 88 1014.6
20260906003040 64 13 0.0 0.0 0.00 0.00 0.00 88 1014.6
20260906002559 64 25 0.0 0.0 0.00 0.00 0.00 87 1014.5
20260906002119 64 10 0.0 0.0 0.00 0.00 0.00 87 1014.4
20260906001550 64 351 0.0 0.0 0.00 0.00 0.00 87 1014.5
20260906001054 65 29 0.0 0.0 0.00 0.00 0.00 87 1014.5
20260906000614 65 355 0.0 0.0 0.00 0.00 0.00 86 1014.5
20260906000138 65 8 0.0 0.0 0.00 0.00 0.00 86 1014.5
20260905235516 65 45 0.0 0.0 0.00 0.00 0.00 86 1014.4
20260905235032 65 297 0.0 0.0 0.00 0.00 0.00 85 1014.3
20260905234550 66 337 0.0 0.0 0.00 0.00 0.00 85 1014.3
20260905234110 66 302 0.0 0.0 0.00 0.00 0.00 84 1014.2
20260905233632 66 9 0.0 0.0 0.00 0.00 0.00 84 1014.3
20260905233152 67 278 0.0 0.0 0.00 0.00 0.00 83 1014.2
20260905232508 67 347 0.0 0.0 0.00 0.00 0.00 82 1014.2
20260905232024 68 5 0.0 0.0 0.00 0.00 0.00 82 1014.1
20260905231542 68 309 0.0 0.0 0.00 0.00 0.00 81 1014.1
20260905231100 68 318 0.0 0.0 0.00 0.00 0.00 80 1014.1
20260905230616 68 55 0.0 0.0 0.00 0.00 0.00 80 1014.1
20260905230035 69 341 0.0 0.0 0.00 0.00 0.00 79 1014.0
20260905225549 69 3 0.0 0.0 0.00 0.00 0.00 79 1014.0
20260905225112 69 310 0.0 4.0 0.00 0.00 0.00 78 1014.1
20260905224641 69 357 0.0 6.0 0.00 0.00 0.00 77 1014.1
20260905224006 70 312 0.0 6.0 0.00 0.00 0.00 77 1014.1
20260905223524 70 65 0.0 6.0 0.00 0.00 0.00 77 1014.0
20260905223056 70 325 0.0 5.0 0.00 0.00 0.00 77 1014.2
20260905222610 70 325 0.0 5.0 0.00 0.00 0.00 76 1014.1
20260905222127 70 328 0.0 4.0 0.00 0.00 0.00 76 1014.1
20260905221646 70 355 0.0 4.0 0.00 0.00 0.00 76 1013.9
20260905221006 70 306 0.0 9.0 0.00 0.00 0.00 75 1013.9